Regional Weather Roundup
Issued by NWS

Home | Current Version | Previous Version | Graphics & Text | Print | Product List | Glossary On
Versions: 1 2 3 4 5 6 7 8 9 10 11 12 13 14 15 16 17 18 19 20 21 22 23 24 25 26 27 28 29 30 31 32 33 34 35 36 37 38 39 40 41 42 43 44 45 46 47 48 49 50
000
ASUS45 KCYS 260010
RWRWY

WYOMING REGIONAL WEATHER ROUNDUP
NATIONAL WEATHER SERVICE CHEYENNE WY
600 PM MDT THU MAY 25 2017

NOTE:  "FAIR" INDICATES FEW OR NO CLOUDS BELOW 12,000 FEET
WITH NO SIGNIFICANT WEATHER AND/OR OBSTRUCTIONS TO VISIBILITY.

WYZ001-260100-
YELLOWSTONE NATIONAL PARK

CITY           SKY/WX    TMP DP  RH WIND       PRES   REMARKS
LK YELLOWSTONE NOT AVBL
W YELLOWSTONE  NOT AVBL

$$
WYZ002>013-054>058-071-098>099-260100-
NORTHERN WYOMING

CITY           SKY/WX    TMP DP  RH WIND       PRES   REMARKS
JACKSON        MOSUNNY   54  18  24 NE6       29.79S
CODY           FAIR      54  28  36 N18       29.80R
GREYBULL       FAIR      61  28  28 N24G30    29.73S
6HR MIN TEMP:  58; 6HR MAX TEMP:  63;

WORLAND        FAIR      61  33  35 N13       29.74R
6HR MIN TEMP:  59; 6HR MAX TEMP:  62;

SHERIDAN       CLOUDY    56  36  47 N18G28    29.77R
6HR MIN TEMP:  51; 6HR MAX TEMP:  60;

BUFFALO        CLOUDY    53  34  48 N20G39    29.77R
6HR MIN TEMP:  51; 6HR MAX TEMP:  58;

GILLETTE       PTSUNNY   55  38  52 NW22G28   29.75R
6HR MIN TEMP:  53; 6HR MAX TEMP:  62;

HULETT         CLOUDY    54  39  58 NW17G26   29.75R
NEWCASTLE      FAIR      61  32  33 NW23G31   29.70R

$$
WYZ014>020-022>026-101>103-260100-
CENTRAL WYOMING

CITY           SKY/WX    TMP DP  RH WIND       PRES   REMARKS
BIG PINEY      PTSUNNY   54  19  25 NW10      29.80R
PINEDALE       FAIR      52  19  28 NW15      29.81R
DUBOIS         NOT AVBL
LANDER         CLOUDY    57  32  38 N16       29.73R
6HR MIN TEMP:  57; 6HR MAX TEMP:  65;

RIVERTON       FAIR      58  29  33 N17G26    29.74R
6HR MIN TEMP:  58; 6HR MAX TEMP:  64;

CASPER         FAIR      59  31  34 N17       29.73R
6HR MIN TEMP:  58; 6HR MAX TEMP:  64;

DOUGLAS        FAIR      63  28  26 N23       29.71R
6HR MIN TEMP:  58; 6HR MAX TEMP:  67;


$$
WYZ021-027>030-104>119-260100-
SOUTHERN WYOMING

CITY           SKY/WX    TMP DP  RH WIND       PRES   REMARKS
EVANSTON       FAIR      54  21  27 W14G22    29.83R
6HR MIN TEMP:  52; 6HR MAX TEMP:  57;

KEMMERER         N/A     52  21  30 W14G20    29.82R
FORT BRIDGER   FAIR      60  12  15 W16G25    29.84R
ROCK SPRINGS   FAIR      57  24  28 W21G26    29.79R
6HR MIN TEMP:  55; 6HR MAX TEMP:  60;

RAWLINS        CLOUDY    58  26  29 W13       29.77R
6HR MIN TEMP:  50; 6HR MAX TEMP:  62;

SARATOGA       CLOUDY    54  34  47 W8        29.80R
LARAMIE        CLOUDY    50  37  61 MISG      29.80R
6HR MIN TEMP:  47; 6HR MAX TEMP:  64; 6HR PCP:  0.02;

CHEYENNE       LGT RAIN  53  44  71 NW9       29.77R
6HR MIN TEMP:  53; 6HR MAX TEMP:  64; 6HR PCP:  0.10;

TORRINGTON     PTSUNNY   67  38  34 N12G23    29.65R
6HR MIN TEMP:  66; 6HR MAX TEMP:  73;

PINE BLUFFS    CLOUDY    54  52  94 NW10      29.74R

$$



USA.gov is the U.S. government's official web portal to all federal, state and local government web resources and services.